Zurück zum Katalog

STARLINK-35167

AktivKommunikationVLEO
NORAD 65736·PAYLOAD·🇺🇸 United States

Gestartet Sep 25, 2025 von Cape Canaveral Space Force Station

Loading…

Nächste Überflüge (nächste 24 Stunden)

TLE

AktuellSource: CelesTrak SupGP

Epoche: Sep 15, 2026, 03:08 UTC

1 65736C 25216C   26258.13104167 -.00048897  00000+0 -14447-2 0  2586
2 65736  53.1570 170.9114 0001250  88.5897  25.7457 15.34414652    12

Verfolge STARLINK-35167 in Echtzeit mit AllMySat

Download on the App Store